Murderkill River Harrington DE USA current weather conditions

sailwx.info

Wind from 201 at 2 knots gusting 5

Air temperature 11.5° C
Dewpoint 11.2° C

Last reported at 2019-Dec-09 22:00 UTC.
Time now 2019-Dec-09 23:06 UTC

Location: N 38°55' W 075°35'.
View on Google Maps.

See reports from other nearby stations

  
Tides and Currents Weather Stations Pressure Air Temp Water Temp Dewpoint Dewpoint Depression Visibility Wind Speed Wind Dir Waves Ship Positions
date/time (UTC)wind fromknots sea level pressurealtimeterstation pressurevisibilityair tempwater tempwave heightnotes
2019-Dec-09 22:00 201 2 gusting 5 11.5
2019-Dec-09 21:55 189 1 gusting 5 11.4
2019-Dec-09 21:50 186 1 gusting 4 11.4
2019-Dec-09 21:45 199 1 gusting 4 11.4
2019-Dec-09 21:40 161 2 gusting 5 11.3
2019-Dec-09 21:35 169 2 gusting 3 11.3
2019-Dec-09 21:30 217 2 gusting 5 11.3
2019-Dec-09 21:25 239 3 gusting 5 11.3
2019-Dec-09 21:20 235 2 gusting 4 11.3
2019-Dec-09 21:15 232 2 gusting 5 11.3
2019-Dec-09 21:10 245 4 gusting 7 11.3
2019-Dec-09 21:05 246 2 gusting 5 11.2
2019-Dec-09 21:00 231 2 gusting 4 11.2
2019-Dec-09 20:55 236 2 gusting 5 11.2
2019-Dec-09 20:50 220 2 gusting 6 11.2
2019-Dec-09 20:45 214 2 gusting 5 11.1
2019-Dec-09 20:40 202 3 gusting 7 11.1
2019-Dec-09 20:35 190 2 gusting 4 11.0
2019-Dec-09 20:30 171 2 gusting 7 10.9
2019-Dec-09 20:25 177 3 gusting 7 10.8
2019-Dec-09 20:20 206 1 gusting 4 10.8
2019-Dec-09 20:15 195 2 gusting 5 10.8
2019-Dec-09 20:10 207 1 gusting 5 10.8
2019-Dec-09 20:05 153 1 gusting 4 10.8
2019-Dec-09 20:00 188 2 gusting 5 10.8
2019-Dec-09 19:55 187 2 gusting 5 10.8
2019-Dec-09 19:50 153 2 gusting 5 10.8
2019-Dec-09 19:45 185 1 gusting 4 10.8
2019-Dec-09 19:40 195 2 gusting 4 10.9
2019-Dec-09 19:35 158 1 gusting 4 10.9
2019-Dec-09 19:30 193 2 gusting 5 10.9
2019-Dec-09 19:25 192 1 gusting 4 10.9
2019-Dec-09 19:20 198 0 gusting 2 10.9
2019-Dec-09 19:15 184 1 gusting 3 10.9
2019-Dec-09 19:10 176 2 gusting 3 10.9
2019-Dec-09 19:05 184 2 gusting 3 10.9
2019-Dec-09 19:00 187 1 gusting 4 10.9
2019-Dec-09 18:55 210 1 gusting 4 10.8
2019-Dec-09 18:50 227 2 gusting 5 10.8
2019-Dec-09 18:45 211 2 gusting 4 10.9
2019-Dec-09 18:40 224 2 gusting 5 10.9
2019-Dec-09 18:35 230 3 gusting 6 10.9
2019-Dec-09 18:30 231 3 gusting 6 10.9
2019-Dec-09 18:25 230 2 gusting 8 10.8
2019-Dec-09 18:20 234 3 gusting 5 10.8
2019-Dec-09 18:15 233 3 gusting 5 10.8
2019-Dec-09 18:10 243 3 gusting 5 10.8
2019-Dec-09 18:05 239 4 gusting 6 10.7
2019-Dec-09 18:00 238 3 gusting 6 10.7
2019-Dec-09 17:55 239 3 gusting 5 10.7
2019-Dec-09 17:50 241 4 gusting 7 10.8
2019-Dec-09 17:45 235 4 gusting 6 10.8
2019-Dec-09 17:40 240 4 gusting 7 10.8
2019-Dec-09 17:35 249 4 gusting 8 10.8
2019-Dec-09 17:30 210 2 gusting 4 10.7
2019-Dec-09 17:25 218 2 gusting 4 10.7
2019-Dec-09 17:20 209 2 gusting 6 10.7
2019-Dec-09 17:15 218 2 gusting 6 10.6
2019-Dec-09 17:10 232 3 gusting 6 10.6
2019-Dec-09 17:05 224 2 gusting 4 10.6
2019-Dec-09 17:00 238 3 gusting 8 10.6
2019-Dec-09 16:55 234 3 gusting 6 10.4
2019-Dec-09 16:50 231 4 gusting 7 10.4
2019-Dec-09 16:45 231 2 gusting 5 10.4
2019-Dec-09 16:40 219 2 gusting 5 10.3
2019-Dec-09 16:35 214 3 gusting 8 10.3
2019-Dec-09 16:30 218 2 gusting 7 10.2
2019-Dec-09 16:25 205 2 gusting 6 10.2
2019-Dec-09 16:20 230 3 gusting 6 10.2
2019-Dec-09 16:15 225 3 gusting 6 10.3
2019-Dec-09 16:10 229 3 gusting 7 10.2
2019-Dec-09 16:05 222 2 gusting 5 10.1
2019-Dec-09 16:00 225 3 gusting 7 10.1
2019-Dec-09 15:55 237 5 gusting 9 10.1
2019-Dec-09 15:50 235 4 gusting 8 10.1
2019-Dec-09 15:45 229 3 gusting 5 10.0
2019-Dec-09 15:40 220 2 gusting 6 10.0
2019-Dec-09 15:35 206 2 gusting 6 9.9
2019-Dec-09 15:30 197 2 gusting 5 9.9
2019-Dec-09 15:25 210 2 gusting 6 9.9
2019-Dec-09 15:20 193 2 gusting 6 10.0
2019-Dec-09 15:15 208 2 gusting 6 9.9
2019-Dec-09 15:10 208 3 gusting 6 9.9
2019-Dec-09 15:05 214 3 gusting 7 9.9
2019-Dec-09 15:00 216 2 gusting 5 9.8
2019-Dec-09 14:55 211 2 gusting 6 9.7
2019-Dec-09 14:50 229 2 gusting 6 9.6
2019-Dec-09 14:45 203 1 gusting 4 9.7
2019-Dec-09 14:40 193 1 gusting 2 9.6
2019-Dec-09 14:35 193 1 gusting 2 9.5
2019-Dec-09 14:30 156 1 gusting 3 9.4
2019-Dec-09 14:25 171 1 gusting 2 9.4
2019-Dec-09 14:20 164 1 gusting 3 9.3
2019-Dec-09 14:15 143 1 gusting 3 9.3
2019-Dec-09 14:10 193 1 gusting 2 9.2
2019-Dec-09 14:05 237 1 gusting 3 9.2
2019-Dec-09 14:00 229 1 gusting 3 9.2
2019-Dec-09 13:55 239 2 gusting 3 9.1
2019-Dec-09 13:50 231 2 gusting 4 9.1
2019-Dec-09 13:45 236 2 gusting 3 9.1
2019-Dec-09 13:40 239 2 gusting 3 9.1
2019-Dec-09 13:35 239 2 gusting 3 9.0
2019-Dec-09 13:30 238 2 gusting 5 9.0
2019-Dec-09 13:25 246 3 gusting 5 9.0
2019-Dec-09 13:20 245 3 gusting 6 9.0
2019-Dec-09 13:15 250 3 gusting 5 9.0
2019-Dec-09 13:10 261 4 gusting 6 9.0
2019-Dec-09 13:05 258 5 gusting 7 9.1
2019-Dec-09 13:00 263 4 gusting 6 9.1
2019-Dec-09 12:55 264 3 gusting 5 9.1
2019-Dec-09 12:50 256 1 gusting 3 8.8
2019-Dec-09 12:45 043 0 gusting 1 8.6
2019-Dec-09 12:40 080 1 gusting 1 8.5
2019-Dec-09 12:35 079 1 gusting 2 8.5
2019-Dec-09 12:30 081 1 gusting 2 8.5
2019-Dec-09 12:25 078 1 gusting 2 8.4
2019-Dec-09 12:20 079 1 gusting 2 8.3
2019-Dec-09 12:15 079 1 gusting 2 8.2
2019-Dec-09 12:10 086 0 gusting 1 8.3
2019-Dec-09 12:05 102 0 gusting 1 8.2
2019-Dec-09 12:00 124 1 gusting 2 8.4
2019-Dec-09 11:55 136 0 gusting 2 8.2
2019-Dec-09 11:50 037 0 gusting 1 8.4
2019-Dec-09 11:45 091 2 gusting 4 8.3
2019-Dec-09 11:40 094 2 gusting 3 8.1
2019-Dec-09 11:35 094 2 gusting 3 7.6
2019-Dec-09 11:30 093 2 gusting 2 7.5
2019-Dec-09 11:25 100 2 gusting 3 7.6
2019-Dec-09 11:20 088 2 gusting 3 7.7
2019-Dec-09 11:15 086 3 gusting 5 7.6
2019-Dec-09 11:10 082 3 gusting 4 7.4
2019-Dec-09 11:05 092 2 gusting 3 7.1
2019-Dec-09 11:00 090 1 gusting 2 7.2
2019-Dec-09 10:55 080 1 gusting 2 7.2
2019-Dec-09 10:50 082 1 gusting 2 6.8
2019-Dec-09 10:45 090 1 gusting 2 6.6
2019-Dec-09 10:40 090 1 gusting 2 6.6
2019-Dec-09 10:35 089 1 gusting 1 6.5
2019-Dec-09 10:30 092 1 gusting 2 6.5
2019-Dec-09 10:25 107 0 gusting 2 6.5
2019-Dec-09 10:20 115 0 gusting 1 6.4
2019-Dec-09 10:15 108 1 gusting 1 6.4
2019-Dec-09 10:10 106 1 gusting 1 6.4
2019-Dec-09 10:05 125 0 gusting 0 6.4
2019-Dec-09 10:00 133 1 gusting 1 6.5
2019-Dec-09 09:55 272 1 gusting 2 6.4
2019-Dec-09 09:50 054 0 gusting 0 6.3
2019-Dec-09 09:45 099 0 gusting 1 6.3
2019-Dec-09 09:40 115 0 gusting 1 6.2
2019-Dec-09 09:35 082 0 gusting 2 6.2
2019-Dec-09 09:30 079 0 gusting 0 6.1
2019-Dec-09 09:25 6.1
2019-Dec-09 09:20 008 0 gusting 0 6.0
2019-Dec-09 09:15 075 1 gusting 3 5.9
2019-Dec-09 09:10 087 1 gusting 2 5.9
2019-Dec-09 09:05 081 1 gusting 2 5.9
2019-Dec-09 09:00 082 1 gusting 1 5.9
2019-Dec-09 08:55 086 0 gusting 1 5.8
2019-Dec-09 08:50 063 0 gusting 0 5.8
2019-Dec-09 08:45 036 0 gusting 1 5.8
2019-Dec-09 08:40 359 0 gusting 1 5.8
2019-Dec-09 08:35 340 0 gusting 1 5.7
2019-Dec-09 08:30 062 0 gusting 1 5.7
2019-Dec-09 08:25 045 0 gusting 0 5.7
2019-Dec-09 08:20 024 0 gusting 1 5.7
2019-Dec-09 08:15 023 0 gusting 0 5.6
2019-Dec-09 08:10 064 0 gusting 1 5.6
2019-Dec-09 08:05 061 0 gusting 1 5.5
2019-Dec-09 08:00 5.5
2019-Dec-09 07:55 069 0 gusting 1 5.5
2019-Dec-09 07:50 048 0 gusting 0 5.5
2019-Dec-09 07:45 048 0 gusting 1 5.5
2019-Dec-09 07:40 357 0 gusting 1 5.5
2019-Dec-09 07:35 005 0 gusting 1 5.5
2019-Dec-09 07:30 029 1 gusting 1 5.5
2019-Dec-09 07:25 083 0 gusting 1 5.5
2019-Dec-09 07:20 346 0 gusting 1 5.5
2019-Dec-09 07:15 357 0 gusting 1 5.4
2019-Dec-09 07:10 355 0 gusting 1 5.4
2019-Dec-09 07:05 339 0 gusting 1 5.4
2019-Dec-09 07:00 018 0 gusting 1 5.3
2019-Dec-09 06:55 5.3
2019-Dec-09 06:50 5.3
2019-Dec-09 06:45 034 0 gusting 1 5.3
2019-Dec-09 06:40 018 0 gusting 1 5.3
2019-Dec-09 06:35 5.3
2019-Dec-09 06:30 5.2
2019-Dec-09 06:25 5.2
2019-Dec-09 06:20 5.2
2019-Dec-09 06:15 5.1
2019-Dec-09 06:10 5.1
2019-Dec-09 06:05 5.1
2019-Dec-09 06:00 5.1
2019-Dec-09 05:55 5.0
2019-Dec-09 05:50 5.0
2019-Dec-09 05:45 073 0 gusting 0 5.0
2019-Dec-09 05:40 083 0 gusting 0 5.1
2019-Dec-09 05:35 097 1 gusting 1 5.1
2019-Dec-09 05:30 063 0 gusting 0 5.1
2019-Dec-09 05:25 038 0 gusting 1 5.2
2019-Dec-09 05:20 5.2
2019-Dec-09 05:15 307 0 gusting 0 5.3
2019-Dec-09 05:10 307 0 gusting 0 5.3
2019-Dec-09 05:05 5.3
2019-Dec-09 05:00 5.3
2019-Dec-09 04:55 5.3
2019-Dec-09 04:50 307 0 gusting 0 5.3
2019-Dec-09 04:45 320 0 gusting 1 5.3
2019-Dec-09 04:40 329 0 gusting 0 5.4
2019-Dec-09 04:35 330 0 gusting 1 5.4
2019-Dec-09 04:30 052 0 gusting 0 5.5
2019-Dec-09 04:25 078 0 gusting 1 5.6
2019-Dec-09 04:20 229 0 gusting 0 5.6
2019-Dec-09 04:15 241 0 gusting 1 5.5
2019-Dec-09 04:10 248 1 gusting 2 5.3
2019-Dec-09 04:05 240 0 gusting 1 5.2
2019-Dec-09 04:00 192 0 gusting 1 5.1
2019-Dec-09 03:55 5.1
2019-Dec-09 03:50 5.1
2019-Dec-09 03:45 081 0 gusting 0 5.1
2019-Dec-09 03:40 081 0 gusting 0 5.1
2019-Dec-09 03:35 081 0 gusting 0 5.1
2019-Dec-09 03:30 081 0 gusting 1 5.1
2019-Dec-09 03:25 087 1 gusting 1 5.0
2019-Dec-09 03:20 5.0
2019-Dec-09 03:15 5.0
2019-Dec-09 03:10 091 0 gusting 0 4.9
2019-Dec-09 03:05 4.9
2019-Dec-09 03:00 091 0 gusting 0 4.9
2019-Dec-09 02:55 094 0 gusting 1 5.0
2019-Dec-09 02:50 332 0 gusting 0 5.1
2019-Dec-09 02:45 5.2
2019-Dec-09 02:40 5.3
2019-Dec-09 02:35 5.2
2019-Dec-09 02:30 333 0 gusting 1 5.1
2019-Dec-09 02:25 5.1
2019-Dec-09 02:20 5.1
2019-Dec-09 02:15 117 0 gusting 1 5.2
2019-Dec-09 02:10 358 1 gusting 1 5.3
2019-Dec-09 02:05 338 0 gusting 1 5.3
2019-Dec-09 02:00 336 1 gusting 2 5.3
2019-Dec-09 01:55 337 1 gusting 1 5.1
2019-Dec-09 01:50 343 0 gusting 1 4.7
2019-Dec-09 01:45 327 1 gusting 1 4.3
2019-Dec-09 01:40 006 0 gusting 0 4.0
2019-Dec-09 01:35 3.9
2019-Dec-09 01:30 3.9
2019-Dec-09 01:25 119 0 gusting 1 3.9
2019-Dec-09 01:20 119 0 gusting 0 3.8
2019-Dec-09 01:15 119 0 gusting 1 3.8
2019-Dec-09 01:10 129 1 gusting 1 3.7
2019-Dec-09 01:05 144 0 gusting 1 3.5
2019-Dec-09 01:00 3.3
2019-Dec-09 00:55 336 0 gusting 0 3.2
2019-Dec-09 00:50 3.1
2019-Dec-09 00:45 3.1
2019-Dec-09 00:40 098 0 gusting 1 3.1
2019-Dec-09 00:35 3.0
2019-Dec-09 00:30 126 0 gusting 0 3.1
2019-Dec-09 00:25 126 0 gusting 0 3.1
2019-Dec-09 00:20 107 1 gusting 2 3.1
2019-Dec-09 00:15 105 1 gusting 1 3.0
2019-Dec-09 00:10 096 1 gusting 2 2.9
2019-Dec-09 00:05 096 1 gusting 2 2.8
2019-Dec-09 00:00 131 0 gusting 0 2.7
2019-Dec-08 23:55 121 0 gusting 1 2.8
2019-Dec-08 23:50 103 1 gusting 1 2.9
2019-Dec-08 23:45 104 0 gusting 0 2.9
2019-Dec-08 23:40 2.9
2019-Dec-08 23:35 2.8
2019-Dec-08 23:30 104 0 gusting 0 3.0
2019-Dec-08 23:25 101 0 gusting 1 3.1
2019-Dec-08 23:20 108 0 gusting 1 3.1
2019-Dec-08 23:15 3.3
2019-Dec-08 23:10 110 0 gusting 1 3.5
2019-Dec-08 23:05 077 0 gusting 0 3.6
2019-Dec-08 23:00 3.6
2019-Dec-08 22:55 077 0 gusting 0 3.8
2019-Dec-08 22:50 077 0 gusting 0 3.9
2019-Dec-08 22:45 077 0 gusting 0 4.1
2019-Dec-08 22:40 040 0 gusting 0 4.3
2019-Dec-08 22:35 096 0 gusting 1 4.6
2019-Dec-08 22:30 111 1 gusting 1 4.5
2019-Dec-08 22:25 085 0 gusting 1 4.8
2019-Dec-08 22:20 088 1 gusting 2 5.1
2019-Dec-08 22:15 088 1 gusting 2 5.4
2019-Dec-08 22:10 088 1 gusting 2 5.9
2019-Dec-08 22:05 074 0 gusting 1 6.2
2019-Dec-08 22:00 085 0 gusting 1 6.3
2019-Dec-08 21:55 076 0 gusting 1 6.6
2019-Dec-08 21:50 060 1 gusting 1 6.8
2019-Dec-08 21:45 043 0 gusting 2 6.9
2019-Dec-08 21:40 066 0 gusting 1 7.1
2019-Dec-08 21:35 110 1 gusting 2 7.4
2019-Dec-08 21:30 126 0 gusting 2 7.6
2019-Dec-08 21:25 112 0 gusting 3 7.8
2019-Dec-08 21:20 076 1 gusting 5 8.0
2019-Dec-08 21:15 081 2 gusting 4 8.1
2019-Dec-08 21:10 116 1 gusting 3 8.3
2019-Dec-08 21:05 142 2 gusting 6 8.5
2019-Dec-08 21:00 119 1 gusting 4 8.6
2019-Dec-08 20:55 152 2 gusting 5 8.7
2019-Dec-08 20:50 095 1 gusting 6 8.8
2019-Dec-08 20:45 117 3 gusting 6 9.0
2019-Dec-08 20:40 129 1 gusting 4 9.3
2019-Dec-08 20:35 161 2 gusting 5 9.4
2019-Dec-08 20:30 212 0 gusting 2 9.1
2019-Dec-08 20:25 157 1 gusting 4 9.1
2019-Dec-08 20:20 123 1 gusting 3 8.9
2019-Dec-08 20:15 157 2 gusting 5 8.9
2019-Dec-08 20:10 168 2 gusting 6 8.8
2019-Dec-08 20:05 147 2 gusting 5 8.8
2019-Dec-08 20:00 160 2 gusting 5 8.8
2019-Dec-08 19:55 135 1 gusting 6 8.8
2019-Dec-08 19:50 113 2 gusting 6 8.9
2019-Dec-08 19:45 106 3 gusting 7 8.9
2019-Dec-08 19:40 123 2 gusting 5 9.1
2019-Dec-08 19:35 191 2 gusting 6 9.4
2019-Dec-08 19:30 159 2 gusting 5 9.2
2019-Dec-08 19:25 197 2 gusting 5 9.2
2019-Dec-08 19:20 188 3 gusting 7 9.1
2019-Dec-08 19:15 186 2 gusting 7 9.0
2019-Dec-08 19:10 124 2 gusting 5 8.8
2019-Dec-08 19:05 112 1 gusting 4 8.9
2019-Dec-08 19:00 122 2 gusting 4 8.8
2019-Dec-08 18:55 150 2 gusting 4 8.7
2019-Dec-08 18:50 134 2 gusting 5 8.4
2019-Dec-08 18:45 155 4 gusting 11 8.7
2019-Dec-08 18:40 179 3 gusting 5 8.9
2019-Dec-08 18:35 146 2 gusting 4 8.7
2019-Dec-08 18:30 133 3 gusting 7 8.4
2019-Dec-08 18:25 110 2 gusting 4 8.0
2019-Dec-08 18:20 106 3 gusting 7 8.0
2019-Dec-08 18:15 132 3 gusting 7 8.0
2019-Dec-08 18:10 172 3 gusting 5 8.0
2019-Dec-08 18:05 125 3 gusting 8 8.0
2019-Dec-08 18:00 164 2 gusting 5 7.8
2019-Dec-08 17:55 105 3 gusting 9 7.9
2019-Dec-08 17:50 097 3 gusting 7 7.9
2019-Dec-08 17:45 142 3 gusting 5 7.8
2019-Dec-08 17:40 215 3 gusting 5 7.7
2019-Dec-08 17:35 122 3 gusting 8 7.6
2019-Dec-08 17:30 098 4 gusting 9 7.6
2019-Dec-08 17:25 120 4 gusting 9 7.3
2019-Dec-08 17:20 115 3 gusting 7 7.3
2019-Dec-08 17:15 177 3 gusting 6 7.3
2019-Dec-08 17:10 167 3 gusting 7 7.4
2019-Dec-08 17:05 132 1 gusting 4 7.1
2019-Dec-08 17:00 178 2 gusting 5 7.3
2019-Dec-08 16:55 105 4 gusting 8 7.1
2019-Dec-08 16:50 111 5 gusting 9 6.7
2019-Dec-08 16:45 091 5 gusting 8 7.0
2019-Dec-08 16:40 118 3 gusting 5 7.2
2019-Dec-08 16:35 109 4 gusting 7 6.7
2019-Dec-08 16:30 081 5 gusting 8 6.5
2019-Dec-08 16:25 089 5 gusting 8 6.5
2019-Dec-08 16:20 101 5 gusting 8 6.3
2019-Dec-08 16:15 103 5 gusting 9 6.4
2019-Dec-08 16:10 122 4 gusting 7 6.2
2019-Dec-08 16:05 116 4 gusting 8 6.0
2019-Dec-08 16:00 107 4 gusting 8 6.0
2019-Dec-08 15:55 101 4 gusting 9 5.8
2019-Dec-08 15:50 103 3 gusting 6 5.7
2019-Dec-08 15:45 090 3 gusting 6 5.5
2019-Dec-08 15:40 102 2 gusting 3 5.4
2019-Dec-08 15:35 088 3 gusting 5 5.0
2019-Dec-08 15:30 101 4 gusting 7 5.0
2019-Dec-08 15:25 089 3 gusting 5 4.8
2019-Dec-08 15:20 082 4 gusting 7 4.8
2019-Dec-08 15:15 078 3 gusting 6 4.8
2019-Dec-08 15:10 092 3 gusting 4 4.7
2019-Dec-08 15:05 095 2 gusting 4 4.4
2019-Dec-08 15:00 091 3 gusting 4 4.0
2019-Dec-08 14:55 093 3 gusting 5 3.9
2019-Dec-08 14:50 087 3 gusting 4 3.8
2019-Dec-08 14:45 101 2 gusting 3 3.7
2019-Dec-08 14:40 091 2 gusting 4 3.3
2019-Dec-08 14:35 092 2 gusting 4 3.2
2019-Dec-08 14:30 078 2 gusting 3 2.9
2019-Dec-08 14:25 083 2 gusting 3 2.5
2019-Dec-08 14:20 082 1 gusting 2 2.4
2019-Dec-08 14:15 093 1 gusting 2 2.5
2019-Dec-08 14:10 123 0 gusting 1 2.6
2019-Dec-08 14:05 1.5
2019-Dec-08 14:00 116 0 gusting 0 0.6
2019-Dec-08 13:55 116 0 gusting 0 0.7
2019-Dec-08 13:50 0.7
2019-Dec-08 13:45 153 0 gusting 0 0.3
2019-Dec-08 13:40 158 0 gusting 0 0.6
2019-Dec-08 13:35 0.3
2019-Dec-08 13:30 -0.7
2019-Dec-08 13:25 -1.9
2019-Dec-08 13:20 -2.6
2019-Dec-08 13:15 -3.1
2019-Dec-08 13:10 -3.4
2019-Dec-08 13:05 -4.2
2019-Dec-08 13:00 175 0 gusting 0 -4.7
2019-Dec-08 12:55 175 0 gusting 0 -4.9
2019-Dec-08 12:50 175 0 gusting 0 -5.1
2019-Dec-08 12:45 -5.3
2019-Dec-08 12:40 -5.4
2019-Dec-08 12:35 -5.4
2019-Dec-08 12:30 -5.5
2019-Dec-08 12:25 -5.5
2019-Dec-08 12:20 -5.6
2019-Dec-08 12:15 -5.7
2019-Dec-08 12:10 -5.6
2019-Dec-08 12:05 -5.6
2019-Dec-08 12:00 -5.6
2019-Dec-08 11:55 -5.7
2019-Dec-08 11:50 -5.6
2019-Dec-08 11:45 -5.7
2019-Dec-08 11:40 175 0 gusting 0 -5.6
2019-Dec-08 11:35 -5.5
2019-Dec-08 11:30 -5.5
2019-Dec-08 11:25 -5.5
2019-Dec-08 11:20 -5.3
2019-Dec-08 11:15 -5.1
2019-Dec-08 11:10 -5.2
2019-Dec-08 11:05 -5.2
2019-Dec-08 11:00 -5.1
2019-Dec-08 10:55 -5.2
2019-Dec-08 10:50 -5.3
2019-Dec-08 10:45 -5.5
2019-Dec-08 10:40 -5.6
2019-Dec-08 10:35 -5.7
2019-Dec-08 10:30 175 0 gusting 0 -5.6
2019-Dec-08 10:25 170 0 gusting 0 -5.4
2019-Dec-08 10:20 075 0 gusting 1 -5.2
2019-Dec-08 10:15 -5.0
2019-Dec-08 10:10 -5.0
2019-Dec-08 10:05 -5.0
2019-Dec-08 10:00 -5.2
2019-Dec-08 09:55 -5.2
2019-Dec-08 09:50 -5.2
2019-Dec-08 09:45 -5.1
2019-Dec-08 09:40 -5.0
2019-Dec-08 09:35 -4.9
2019-Dec-08 09:30 030 0 gusting 0 -4.8
2019-Dec-08 09:25 044 0 gusting 1 -4.8
2019-Dec-08 09:20 064 0 gusting 1 -4.9
2019-Dec-08 09:15 064 0 gusting 0 -4.9
2019-Dec-08 09:10 -4.9
2019-Dec-08 09:05 064 0 gusting 0 -4.9
2019-Dec-08 09:00 064 0 gusting 0 -4.8
2019-Dec-08 08:55 -4.8
2019-Dec-08 08:50 064 0 gusting 0 -4.8
2019-Dec-08 08:45 064 0 gusting 0 -4.9
2019-Dec-08 08:40 064 0 gusting 0 -4.9
2019-Dec-08 08:35 064 0 gusting 0 -5.0
2019-Dec-08 08:30 -5.1
2019-Dec-08 08:25 -5.0
2019-Dec-08 08:20 064 0 gusting 0 -5.0
2019-Dec-08 08:15 064 0 gusting 0 -5.2
2019-Dec-08 08:10 -5.1
2019-Dec-08 08:05 -5.1
2019-Dec-08 08:00 -5.1
2019-Dec-08 07:55 -5.2
2019-Dec-08 07:50 -5.1
2019-Dec-08 07:45 -5.1
2019-Dec-08 07:40 -5.0
2019-Dec-08 07:35 -4.9
2019-Dec-08 07:30 -4.7
2019-Dec-08 07:25 065 0 gusting 0 -4.8
2019-Dec-08 07:20 -4.9
2019-Dec-08 07:15 -4.7
2019-Dec-08 07:10 -4.5
2019-Dec-08 07:05 065 0 gusting 0 -4.5
2019-Dec-08 07:00 065 0 gusting 0 -4.5
2019-Dec-08 06:55 065 0 gusting 0 -4.4
2019-Dec-08 06:50 065 0 gusting 0 -4.3
2019-Dec-08 06:45 -4.3
2019-Dec-08 06:40 060 0 gusting 0 -4.3
2019-Dec-08 06:35 -4.3
2019-Dec-08 06:30 060 0 gusting 0 -4.2
2019-Dec-08 06:25 060 0 gusting 0 -4.2
2019-Dec-08 06:20 -4.2
2019-Dec-08 06:15 -4.2
2019-Dec-08 06:10 -4.2
2019-Dec-08 06:05 -4.3
2019-Dec-08 06:00 -4.2
2019-Dec-08 05:55 -4.2
2019-Dec-08 05:50 -4.4
2019-Dec-08 05:45 -4.3
2019-Dec-08 05:40 -4.2
2019-Dec-08 05:35 -4.0
2019-Dec-08 05:30 -4.0
2019-Dec-08 05:25 -4.0
2019-Dec-08 05:20 -3.8
2019-Dec-08 05:15 -3.9
2019-Dec-08 05:10 -3.9
2019-Dec-08 05:05 -3.8
2019-Dec-08 05:00 -3.7
2019-Dec-08 04:55 -3.8
2019-Dec-08 04:50 -3.8
2019-Dec-08 04:45 -3.8
2019-Dec-08 04:40 -3.8
2019-Dec-08 04:35 -3.8
2019-Dec-08 04:30 -3.7
2019-Dec-08 04:25 -3.6
2019-Dec-08 04:20 -3.7
2019-Dec-08 04:15 -3.7
2019-Dec-08 04:10 -3.7
2019-Dec-08 04:05 -3.7
2019-Dec-08 04:00 -3.8
2019-Dec-08 03:55 -3.6
2019-Dec-08 03:50 -3.3
2019-Dec-08 03:45 091 0 gusting 0 -3.1
2019-Dec-08 03:40 092 0 gusting 0 -3.1
2019-Dec-08 03:35 -3.0
2019-Dec-08 03:30 -3.0
2019-Dec-08 03:25 -3.2
2019-Dec-08 03:20 -3.3
2019-Dec-08 03:15 -3.3
2019-Dec-08 03:10 -3.3
2019-Dec-08 03:05 -3.3
2019-Dec-08 03:00 -3.3
2019-Dec-08 02:55 -3.1
2019-Dec-08 02:50 -2.9
2019-Dec-08 02:45 -2.8
2019-Dec-08 02:40 -2.9
2019-Dec-08 02:35 -2.8
2019-Dec-08 02:30 -2.7
2019-Dec-08 02:25 -2.7
2019-Dec-08 02:20 -2.6
2019-Dec-08 02:15 -2.6
2019-Dec-08 02:10 -2.7
2019-Dec-08 02:05 -2.7
2019-Dec-08 02:00 -2.6
2019-Dec-08 01:55 -2.6
2019-Dec-08 01:50 -2.7
2019-Dec-08 01:45 -2.7
2019-Dec-08 01:40 -2.6
2019-Dec-08 01:35 -2.4
2019-Dec-08 01:30 -2.3
2019-Dec-08 01:25 092 0 gusting 0 -2.1
2019-Dec-08 01:20 092 0 gusting 0 -2.0
2019-Dec-08 01:15 092 0 gusting 0 -2.0
2019-Dec-08 01:10 092 0 gusting 0 -1.8
2019-Dec-08 01:05 092 0 gusting 0 -2.0
2019-Dec-08 01:00 -2.3
2019-Dec-08 00:55 -2.4
2019-Dec-08 00:50 -2.3
2019-Dec-08 00:45 -2.1
2019-Dec-08 00:40 -1.8
2019-Dec-08 00:35 092 0 gusting 0 -1.7
2019-Dec-08 00:30 092 0 gusting 0 -1.5
2019-Dec-08 00:25 092 0 gusting 0 -1.5
2019-Dec-08 00:20 -1.5
2019-Dec-08 00:15 -1.2
2019-Dec-08 00:10 -1.0
2019-Dec-08 00:05 092 0 gusting 1 -0.7
2019-Dec-08 00:00 092 1 gusting 1 -0.3
2019-Dec-07 23:55 092 0 gusting 1 -0.4
2019-Dec-07 23:50 -0.6
2019-Dec-07 23:45 -0.3
2019-Dec-07 23:40 0.1
2019-Dec-07 23:35 0.3
2019-Dec-07 23:30 0.4
2019-Dec-07 23:25 0.6
2019-Dec-07 23:20 0.7
2019-Dec-07 23:15 0.9
2019-Dec-07 23:10 0.9
2019-Dec-07 23:05 0.9
2019-Dec-07 23:00 1.2